Location: Platte
(43.3870°N, 98.8440°W)
Time: 17:19:08
(UTC-05:00)

Daily predictions for brighter satellites

Satellite Brightness Start Highest point End
(mag) Time Altitude Azimuth Time Altitude Azimuth Time Altitude Azimuth
CORIOLIS 4.2 19:07:17 10° SSE 19:12:40 88° ENE 19:18:07 10° NNW
Abrixas rocket 2.2 19:11:33 10° WSW 19:14:50 75° SSE 19:18:08 10° ENE
Cosmos 1703 4.4 19:11:47 10° NNE 19:15:00 23° ENE 19:18:11 10° SE
FENGYUN 3A 4.4 19:11:25 10° SE 19:16:07 32° ENE 19:20:51 10° N
CZ-4 R/B 1.6 19:12:54 10° SSE 19:17:08 83° WSW 19:21:21 10° NNW
Landsat 4 3.7 19:14:04 10° NNE 19:17:49 89° WNW 19:21:32 10° SSW
CZ-2C R/B 3.7 19:14:57 10° NNE 19:19:32 88° E 19:24:01 10° SSW
MOS 1 4.4 19:14:04 10° SSE 19:19:36 60° ENE 19:25:12 10° N
Cosmos 1953 4.4 19:16:36 10° SW 19:20:17 32° WNW 19:23:59 10° N
Meteor 2-14 Rocket 4.5 19:15:33 10° S 19:21:33 63° E 19:27:33 10° NNE
Cosmos 1400 Rocket 3.4 19:20:30 10° N 19:24:17 36° ENE 19:27:59 10° SE
Tiangong 1 2.6 19:23:47 10° W 19:26:07 26° SSW 19:28:25 10° SE
Cosmos 2219 Rocket 4.0 19:23:36 10° NNE 19:26:14 13° NE 19:28:50 10° ENE
Cosmos-2242 3.0 19:21:58 10° S 19:26:14 85° E 19:30:30 10° N
Cosmos 1624 Rocket 4.0 19:23:35 10° NNW 19:28:49 78° ENE 19:34:03 10° SSE
Cosmos 1371 Rocket 4.2 19:25:45 10° NNW 19:31:10 84° WSW 19:36:30 10° SSE
SKYMED 2 3.6 19:27:16 10° NNE 19:31:34 56° E 19:35:49 10° S
Thor Agena Rocket 4.5 19:27:47 10° NE 19:31:57 25° E 19:36:03 10° SSE
Meteor 1-28 Rocket 3.5 19:28:18 10° N 19:32:07 73° WNW 19:35:52 10° SSW
ERS-2 3.1 19:29:11 10° S 19:32:48 53° WSW 19:36:27 10° NNW
USA 234 4.4 19:28:39 10° ENE 19:34:04 29° N 19:39:31 10° NW
SL-16 R/B 2.4 19:30:37 10° NNW 19:36:20 81° WSW 19:41:59 10° SSE
Cosmos 1743 Rocket 3.6 19:33:47 10° N 19:38:06 58° E 19:42:26 10° SSE
Cosmos 1908 4.4 19:35:52 10° SE 19:38:57 23° E 19:42:03 10° NE
Cosmos 1766 Rocket 4.4 19:36:36 10° NNW 19:40:58 56° W 19:45:19 10° S
Cosmos 2151 3.2 19:36:55 10° N 19:41:05 47° ENE 19:45:12 10° SSE
Iridium 4 Rocket 4.5 19:36:59 10° SE 19:41:37 29° E 19:46:30 10° NNE
Cosmos 1842 Rocket 3.6 19:42:04 10° S 19:46:27 57° E 19:50:50 10° NNE
H-2A R/B 3.8 19:43:54 10° SE 19:47:07 26° ENE 19:50:22 10° NNE
Resurs 01 Rocket 3.4 19:50:00 13° ENE 19:50:00 13° ENE 19:52:06 10° NNE
Cosmos 2237 Rocket 4.0 19:51:49 10° NNE 19:54:17 13° NE 19:55:40 12° NE
ISS -1.3 19:52:56 10° W 19:55:25 20° SW 19:57:55 10° S
FREGAT/IRIS 3.4 19:56:03 20° ESE 19:57:26 30° ENE 20:00:08 10° N
Cosmos 2221 3.1 19:54:11 10° SSE 19:58:01 33° E 20:01:55 10° NNE
Cosmos 2366 rocket 4.1 19:52:48 10° S 19:59:03 84° W 20:05:16 10° N
Cosmos 1500 Rocket 3.4 19:56:09 10° N 20:00:32 77° E 20:04:50 10° SSE
Cosmos 1315 Rocket 2.9 20:01:18 10° N 20:05:17 53° ENE 20:09:18 10° SSE
SPOT 3 Rocket 4.0 20:01:57 10° S 20:07:05 66° WSW 20:12:18 10° NNW
Cosmos 921 Rocket 3.2 20:03:24 10° N 20:07:49 53° ENE 20:11:50 12° SE
BREEZE-M DEB (TANK) 3.0 20:06:37 10° W 20:08:25 24° SW 20:09:31 16° S
Cosmos 158 Rocket 4.5 20:04:08 10° SSE 20:08:38 35° E 20:13:16 10° NE
HJ-1C 4.2 20:10:01 31° ENE 20:10:05 31° ENE 20:13:09 10° N
COSMOS 2428 3.2 20:08:13 10° NNW 20:13:33 40° ENE 20:16:20 25° ESE
Cosmos 1461 4.5 20:10:37 10° WSW 20:14:18 33° NW 20:18:11 10° NNE
BREEZE-M DEB (TANK) 1.6 20:12:46 10° WSW 20:14:53 63° NNW 20:15:03 58° N
Cosmos 2058 3.2 20:11:17 10° NNW 20:15:29 72° W 20:19:37 10° S
Cosmos 2333 Rocket 3.3 20:12:17 10° N 20:16:57 25° NE 20:18:02 24° ENE
COSMO-SKYMED 1 3.8 20:15:28 10° N 20:19:36 44° WNW 20:23:43 10° SW
RESURS DK-1 2.2 20:16:04 10° NNW 20:20:14 82° ENE 20:23:04 20° SSE
Cosmos 2360 Rocket 2.2 20:14:54 10° NNW 20:20:36 87° WSW 20:26:16 10° SSE
Cosmos 1626 3.5 20:17:04 10° NNW 20:20:37 41° W 20:24:08 10° SSW
Cosmos 1833 4.1 20:15:38 10° SSW 20:21:21 88° ESE 20:27:02 10° NNE
NOSS 3 (A) 4.3 20:18:39 10° SSW 20:21:24 81° SE 20:21:56 56° NE
Cosmos 2098 Rocket 3.5 20:17:57 10° SSE 20:21:53 44° E 20:26:52 10° NNE
FengYun 1-2 T 4.1 20:18:41 10° SSE 20:24:09 72° ENE 20:29:39 10° N
Meteor 2-1 Rocket 4.4 20:19:01 10° SSW 20:24:46 81° W 20:30:42 10° N
Cosmos 2219 3.8 20:21:21 10° SSE 20:26:27 34° ESE 20:27:40 31° E
Cosmos 2322 Rocket 4.0 20:21:33 10° NW 20:26:28 32° WSW 20:31:22 10° SSW
Cosmos 468 4.4 20:21:25 10° S 20:26:32 60° ESE 20:31:41 10° NNE
MOS 1-B Rocket 4.2 20:25:31 27° ESE 20:28:03 42° ENE 20:33:38 10° N
SL-24 R/B - RUBIN 2 3.6 20:23:26 10° NW 20:28:23 89° SW 20:30:52 27° SSE
Lacrosse 5 rocket 3.7 20:27:31 10° WNW 20:30:37 18° NNW 20:33:24 11° NNE
SJ-6B 2.5 20:30:53 42° SE 20:31:58 67° ENE 20:35:41 10° N
SL-8 R/B 3.7 20:28:13 10° SW 20:33:01 68° SSE 20:34:26 44° E
Cosmos 1452 Rocket 3.6 20:28:58 10° NNW 20:34:14 75° WSW 20:39:28 10° SSE
BREEZE-M DEB (TANK) 4.2 20:30:37 10° WNW 20:35:20 86° SSW 20:47:49 21° ESE
Sich 1 3.8 20:32:01 10° N 20:35:07 34° NE 20:35:07 34° NE
Cosmos 1821 Rocket 3.9 20:30:37 10° S 20:36:39 65° E 20:42:49 10° NNE
Cosmos 1000 Rocket 4.4 20:30:58 10° N 20:37:15 79° E 20:43:26 10° S
Cosmos 1805 Rocket 3.4 20:34:17 10° N 20:38:38 64° E 20:39:44 46° SE
USA 267 3.3 20:37:01 27° ENE 20:40:40 60° SE 20:47:06 10° SW
Aureole 2 4.4 20:38:27 10° NNW 20:41:26 67° WSW 20:41:26 67° WSW
DELTA 2 R/B (1) 3.9 20:39:38 10° W 20:45:05 55° S 20:46:42 41° SE
Atlas Centaur 2 3.8 20:41:31 10° SW 20:45:36 22° S 20:47:12 20° SSE
Cosmos 2239 Rocket 4.3 20:39:32 10° S 20:45:39 76° E 20:51:48 10° N
Cosmos 1934 Rocket 4.0 20:39:46 10° S 20:45:57 59° E 20:52:13 10° NNE
Cosmos 2322 4.0 20:40:28 10° NNW 20:46:11 68° WSW 20:51:21 12° SSE
Cosmos 1666 Rocket 4.3 20:42:46 10° N 20:45:46 37° NNE 20:45:46 37° NNE
ALOS 3.9 20:44:24 10° SSW 20:48:39 35° W 20:52:57 10° NNW
Spot 2 Rocket 3.9 20:51:35 44° NE 20:51:35 44° NE 20:55:50 10° N
Abrixas rocket 3.6 20:48:35 10° WNW 20:51:14 34° NNW 20:51:14 34° NNW
Gbstr 26 Del rocket 3.9 20:46:43 10° NW 20:51:50 56° NNE 20:53:04 47° ENE
Aureole 2 Rocket 4.4 20:50:55 10° N 20:52:31 23° N 20:52:31 23° N
Cosmos 1633 Rocket 4.3 20:52:51 10° N 20:55:16 30° NNE 20:55:16 30° NNE
CZ-4C R/B 2.6 20:53:55 10° SSW 20:57:35 41° SSE 20:57:35 41° SSE
Cosmos 2123 Rocket 3.8 20:57:15 10° N 21:03:29 73° E 21:05:32 44° SSE
Cosmos 1605 Rocket 4.3 21:12:13 47° NE 21:12:13 47° NE 21:16:42 10° NNE
BREEZE-M DEB (TANK) 3.4 20:54:47 10° WNW 21:10:58 81° NNE 21:11:54 64° E
Cosmos 2219 Rocket 2.1 21:05:40 10° NNW 21:11:01 68° NE 21:11:01 68° NE
USA 234 3.5 21:15:23 49° NE 21:16:12 52° NNE 21:22:31 10° NW
Cosmos 1048 Rocket 4.1 21:11:33 10° SSW 21:16:39 69° WNW 21:19:09 30° N
Cosmos 2333 4.4 21:15:59 10° NNW 21:21:39 67° WSW 21:22:46 54° SSW
Envisat 3.3 21:26:30 59° NNW 21:26:30 59° NNW 21:30:37 10° NNW
Resurs 01 Rocket 2.8 21:27:35 37° NNW 21:27:35 37° NNW 21:30:19 10° NNW
Cosmos 2237 Rocket 3.1 21:33:52 10° NNW 21:37:31 39° N 21:37:31 39° N
SL-16 R/B 4.1 21:42:33 10° N 21:44:36 20° N 21:44:36 20° N
COSMOS 2428 4.1 21:52:42 10° NW 21:57:41 32° WSW 21:58:24 31° WSW
Cosmos 2333 Rocket 3.2 21:55:58 10° NNW 22:00:03 44° WNW 22:00:03 44° WNW
USA 267 4.0 22:24:24 47° NW 22:24:24 47° NW 22:29:48 10° W
CZ-3A R/B 4.0 22:12:49 10° NW 22:27:05 74° NNW 22:27:05 74° NNW
